Radiation Dose measured at Intake/Vertical shaft monitor
Date,Time,Intake(cps),Vertical shaft(cps),Rain
2024/03/07,00:00,4.9,4.6,No
2024/03/07,00:10,4.8,4.5,No
2024/03/07,00:20,4.8,4.6,No
2024/03/07,00:30,4.7,4.6,No
2024/03/07,00:40,4.8,4.6,No
2024/03/07,00:50,4.7,4.7,No
2024/03/07,01:00,4.7,4.6,No
2024/03/07,01:10,4.8,4.7,No
2024/03/07,01:20,4.7,4.7,No
2024/03/07,01:30,4.7,4.7,No
2024/03/07,01:40,4.5,4.7,No
2024/03/07,01:50,4.8,4.5,No
2024/03/07,02:00,4.7,4.5,No
2024/03/07,02:10,4.6,4.5,No
2024/03/07,02:20,4.6,4.6,No
2024/03/07,02:30,4.6,4.7,No
2024/03/07,02:40,4.9,4.6,No
2024/03/07,02:50,4.8,4.8,No
2024/03/07,03:00,4.7,4.6,No
2024/03/07,03:10,4.7,4.6,No
2024/03/07,03:20,4.7,4.5,No
2024/03/07,03:30,4.7,4.5,No
2024/03/07,03:40,4.6,4.5,No
2024/03/07,03:50,4.7,4.6,No
2024/03/07,04:00,4.6,4.5,No
2024/03/07,04:10,4.6,4.6,No
2024/03/07,04:20,4.7,4.6,No
2024/03/07,04:30,4.6,4.5,No
2024/03/07,04:40,4.6,4.6,No
2024/03/07,04:50,4.7,4.6,No
2024/03/07,05:00,4.7,4.6,No
2024/03/07,05:10,4.6,4.6,No
2024/03/07,05:20,4.7,4.6,No
2024/03/07,05:30,4.7,4.6,No
2024/03/07,05:40,4.6,4.5,No
2024/03/07,05:50,4.5,4.6,No
2024/03/07,06:00,4.7,4.6,No
2024/03/07,06:10,4.7,4.6,No
2024/03/07,06:20,4.8,4.6,No
2024/03/07,06:30,4.7,4.4,No
2024/03/07,06:40,4.6,4.6,No
2024/03/07,06:50,4.7,4.7,No
2024/03/07,07:00,4.7,4.6,No
2024/03/07,07:10,4.7,4.7,No
2024/03/07,07:20,4.6,4.4,No
2024/03/07,07:30,4.7,4.6,No
2024/03/07,07:40,4.7,4.5,No
2024/03/07,07:50,4.7,4.6,No
2024/03/07,08:00,4.7,4.6,No
2024/03/07,08:10,4.8,4.6,No
2024/03/07,08:20,4.7,4.7,No
2024/03/07,08:30,4.6,4.5,No
2024/03/07,08:40,4.5,4.6,No
2024/03/07,08:50,4.8,4.6,No
2024/03/07,09:00,4.7,4.5,No
2024/03/07,09:10,4.7,4.6,No
2024/03/07,09:20,4.7,4.7,No
2024/03/07,09:30,4.6,4.5,No
2024/03/07,09:40,4.6,4.6,No
2024/03/07,09:50,4.8,4.6,No
2024/03/07,10:00,4.8,4.6,No
2024/03/07,10:10,4.7,4.4,No
2024/03/07,10:20,4.7,4.5,No
2024/03/07,10:30,4.6,4.8,No
2024/03/07,10:40,4.8,4.6,No
2024/03/07,10:50,4.7,4.4,No
2024/03/07,11:00,4.8,4.5,No
2024/03/07,11:10,4.7,4.5,No
2024/03/07,11:20,4.5,4.5,No
2024/03/07,11:30,4.6,4.6,No
2024/03/07,11:40,4.6,4.5,No
2024/03/07,11:50,4.8,4.6,No
2024/03/07,12:00,4.6,4.7,No
2024/03/07,12:10,4.7,4.5,No
2024/03/07,12:20,4.6,4.6,No
2024/03/07,12:30,4.6,4.6,No
2024/03/07,12:40,4.6,4.6,No
2024/03/07,12:50,4.7,4.6,No
2024/03/07,13:00,4.7,4.7,No
2024/03/07,13:10,4.7,4.6,No
2024/03/07,13:20,4.8,4.6,No
2024/03/07,13:30,4.7,4.5,No
2024/03/07,13:40,4.7,4.6,No
2024/03/07,13:50,4.8,4.7,No
2024/03/07,14:00,4.6,4.5,No
2024/03/07,14:10,4.7,4.6,No
2024/03/07,14:20,4.6,4.8,No
2024/03/07,14:30,4.6,4.5,No
2024/03/07,14:40,4.9,4.6,No
2024/03/07,14:50,4.7,4.7,No
2024/03/07,15:00,4.6,4.7,No
2024/03/07,15:10,4.7,4.6,No
2024/03/07,15:20,4.7,4.6,No
2024/03/07,15:30,4.7,4.6,No
2024/03/07,15:40,4.7,4.7,No
2024/03/07,15:50,4.6,4.6,No
2024/03/07,16:00,4.5,4.6,No
2024/03/07,16:10,4.7,4.5,No
2024/03/07,16:20,4.6,4.6,No
2024/03/07,16:30,4.8,4.5,No
2024/03/07,16:40,4.8,4.5,No
2024/03/07,16:50,4.8,4.5,No
2024/03/07,17:00,4.9,4.5,No
2024/03/07,17:10,4.8,4.5,No
2024/03/07,17:20,4.7,4.7,No
2024/03/07,17:30,4.7,4.7,No
2024/03/07,17:40,4.7,4.6,No
2024/03/07,17:50,4.9,4.5,No
2024/03/07,18:00,5.0,4.6,No
2024/03/07,18:10,4.8,4.7,No
2024/03/07,18:20,4.7,4.6,No
2024/03/07,18:30,4.8,4.7,No
2024/03/07,18:40,4.9,4.6,No
2024/03/07,18:50,4.9,4.5,No
2024/03/07,19:00,4.7,4.6,No
2024/03/07,19:10,4.8,4.7,No
2024/03/07,19:20,5.0,4.5,No
2024/03/07,19:30,4.9,4.7,No
2024/03/07,19:40,4.9,4.8,No
2024/03/07,19:50,5.0,4.8,No
2024/03/07,20:00,4.9,4.6,No
2024/03/07,20:10,5.0,4.8,No
2024/03/07,20:20,5.1,4.8,No
2024/03/07,20:30,5.1,4.6,No
2024/03/07,20:40,5.1,4.6,No
2024/03/07,20:50,5.1,4.5,No
2024/03/07,21:00,5.2,4.7,No
2024/03/07,21:10,5.2,4.7,No
2024/03/07,21:20,5.2,4.9,No
2024/03/07,21:30,5.1,4.6,No
2024/03/07,21:40,5.3,4.7,No
2024/03/07,21:50,5.3,4.8,No
2024/03/07,22:00,5.1,4.6,No
2024/03/07,22:10,5.1,4.6,No
2024/03/07,22:20,5.0,4.7,No
2024/03/07,22:30,5.1,4.8,No
2024/03/07,22:40,5.0,4.8,No
2024/03/07,22:50,5.0,4.7,No
2024/03/07,23:00,5.1,4.6,No
2024/03/07,23:10,4.9,4.8,No
2024/03/07,23:20,5.0,4.6,No
2024/03/07,23:30,5.1,4.7,No
2024/03/07,23:40,5.1,4.6,No
2024/03/07,23:50,4.9,4.7,No
